Regional Weather Roundup
Issued by NWS

Home | Current Version | Previous Version | Text Only | Print | Product List | Glossary On
Versions: 1 2 3 4 5 6 7 8 9 10 11 12 13 14 15 16 17 18 19 20 21 22 23 24 25 26 27 28 29 30 31 32 33 34 35 36 37 38 39 40 41 42 43 44 45 46 47 48 49 50
217
ASUS43 KMKX 060011
RWRWI

WISCONSIN REGIONAL WEATHER ROUNDUP
NATIONAL WEATHER SERVICE MILWAUKEE/SULLIVAN WI
600 PM CST MON DEC 05 2016

NOTE: "FAIR" INDICATES FEW OR NO CLOUDS BELOW 12,000 FEET WITH NO
SIGNIFICANT WEATHER AND/OR OBSTRUCTIONS TO VISIBILITY.

WIZ001-002-006>008-014>016-023>028-060100-
NORTHWEST WISCONSIN

CITY           SKY/WX    TMP DP  RH WIND       PRES   REMARKS
SUPERIOR ARPT  CLOUDY    35  33  94 E9        29.73F WCI  27
6HR MIN TEMP:  33; 6HR MAX TEMP:  39; 6HR PCP:  0.05;

ASHLAND        CLOUDY    37  30  75 MISG      29.81R
6HR MIN TEMP:  36; 6HR MAX TEMP:  48;

HAYWARD        CLOUDY    34  31  88 SE8G16    29.74R WCI  27
6HR MIN TEMP:  32; 6HR MAX TEMP:  34; 6HR PCP:  0.01;

SIREN          CLOUDY    35  32  90 SE7       29.69F WCI  29
6HR MIN TEMP:  33; 6HR MAX TEMP:  38; 6HR PCP:  0.03;

CUMBERLAND     CLOUDY    32  32 100 SE15G21   29.71S WCI  22
RICE LAKE      CLOUDY    34  33  94 SE15      29.75S WCI  25
6HR MIN TEMP:  30; 6HR MAX TEMP:  34;

CHETEK         CLOUDY    33  33 100 SE7       29.75S WCI  27
6HR MIN TEMP:  31; 6HR MAX TEMP:  33;

LADYSMITH      CLOUDY    35  32  90 SE12      29.79F WCI  26
6HR MIN TEMP:  32; 6HR MAX TEMP:  35;

EAU CLAIRE     CLOUDY    36  31  82 SE17      29.73F WCI  26
6HR MIN TEMP:  35; 6HR MAX TEMP:  36;

MENOMONIE      CLOUDY    36  32  87 SE12      29.73S WCI  27
6HR MIN TEMP:  33; 6HR MAX TEMP:  36;

NEW RICHMOND   CLOUDY    36  32  84 SE12G18   29.68F WCI  28
6HR MIN TEMP:  33; 6HR MAX TEMP:  37;

OSCEOLA        CLOUDY    37  32  81 SE18G24   29.69S WCI  27
6HR MIN TEMP:  33; 6HR MAX TEMP:  37;

$$

WIZ003>005-009-010-017-018-060100-
NORTH CENTRAL WISCONSIN

CITY           SKY/WX    TMP DP  RH WIND       PRES   REMARKS
MANITOWISH WTR CLOUDY    33  32  99 S8        29.83R WCI  25
6HR MIN TEMP:  33; 6HR MAX TEMP:  36;

ARBOR VITAE    PTCLDY    37  34  90 S10G17    29.85R WCI  29
6HR MIN TEMP:  37; 6HR MAX TEMP:  39;

WOODRUFF       PTCLDY    37  34  90 S10G17    29.85R WCI  29
6HR MIN TEMP:  37; 6HR MAX TEMP:  39;

RHINELANDER    LGT SNOW  33  31  92 S9        29.87R FOG     WCI  25
6HR MIN TEMP:  34; 6HR MAX TEMP:  38;

EAGLE RIVER    PTCLDY    33  29  86 S8        29.85R WCI  26
6HR MIN TEMP:  33; 6HR MAX TEMP:  38;

LAND O LAKES   CLOUDY    34  31  87 S7        29.86R WCI  28
6HR MIN TEMP:  33; 6HR MAX TEMP:  39;

PHILLIPS       CLOUDY    32  32  98 SE6       29.80F WCI  27
6HR MIN TEMP:  31; 6HR MAX TEMP:  36;

TOMAHAWK       CLOUDY    32  30  92 SE3       29.86S
6HR MIN TEMP:  32; 6HR MAX TEMP:  35;

MEDFORD        CLOUDY    32  31  94 SE9       29.82F FOG     WCI  24
6HR MIN TEMP:  30; 6HR MAX TEMP:  32;

MERRILL        CLOUDY    33  32  98 SE5       29.88S WCI  28
6HR MIN TEMP:  33; 6HR MAX TEMP:  35;

$$

WIZ029-030-035-036-043>047-060100-
CENTRAL WISCONSIN

CITY           SKY/WX    TMP DP  RH WIND       PRES   REMARKS
WAUSAU         CLOUDY    33  31  92 SE7       29.87F WCI  27
6HR MIN TEMP:  32; 6HR MAX TEMP:  33;

MOSINEE        CLOUDY    32  32 100 SE9       29.88F FOG     WCI  24
MARSHFIELD     CLOUDY    33  31  92 SE12      29.84F WCI  24
6HR MIN TEMP:  32; 6HR MAX TEMP:  33;

STEVENS POINT  CLOUDY    31  31 100 SE5       29.89F FOG     WCI  27
6HR MIN TEMP:  31; 6HR MAX TEMP:  32;

WAUPACA        CLOUDY    35  32  90 CALM      29.94S FOG
6HR MIN TEMP:  35; 6HR MAX TEMP:  36;

WAUTOMA        CLOUDY    33  31  92 SE8       29.93F WCI  26
6HR MIN TEMP:  33; 6HR MAX TEMP:  35;

WISC RAPIDS    MOCLDY    33  33 100 SE7       29.89F WCI  27
6HR MIN TEMP:  33; 6HR MAX TEMP:  34;

CAMP DOUGLAS   CLOUDY    34  30  86 SE13      29.86F WCI  25
$$

WIZ011>013-019>022-031-037>040-048>050-060100-
NORTHEAST WISCONSIN

CITY           SKY/WX    TMP DP  RH WIND       PRES   REMARKS
ANTIGO         CLOUDY    31  31 100 S7        29.90S FOG     WCI  24
6HR MIN TEMP:  31; 6HR MAX TEMP:  35;

SHAWANO        CLOUDY    35  32  90 CALM      29.94F
6HR MIN TEMP:  35; 6HR MAX TEMP:  38;

OCONTO         CLOUDY    33  32  93 CALM      29.95S
6HR MIN TEMP:  33; 6HR MAX TEMP:  36;

STURGEON BAY   MOCLDY    33  31  92 S7        29.97S WCI  27
6HR MIN TEMP:  33; 6HR MAX TEMP:  37;

GREEN BAY      CLOUDY    35  34  96 S7        29.96S WCI  29
6HR MIN TEMP:  35; 6HR MAX TEMP:  36;

MANITOWOC      CLOUDY    34  32  92 S6        29.98R WCI  29
6HR MIN TEMP:  34; 6HR MAX TEMP:  36;

APPLETON       CLOUDY    32  32 100 S9        29.93S FOG     WCI  24
CLINTONVILLE   CLOUDY    32  32 100 S6        29.94F FOG     WCI  26
OSHKOSH        CLOUDY    33  30  88 S9        29.95R WCI  25
6HR MIN TEMP:  33; 6HR MAX TEMP:  34;

$$

WIZ032>034-041-042-053>061-060100-
SOUTHWEST WISCONSIN

CITY           SKY/WX    TMP DP  RH WIND       PRES   REMARKS
LA CROSSE      CLOUDY    38  31  76 SE12      29.81F WCI  30
6HR MIN TEMP:  38; 6HR MAX TEMP:  39;

SPARTA         CLOUDY    35  32  88 CALM      29.85S
6HR MIN TEMP:  35; 6HR MAX TEMP:  39;

VIROQUA        CLOUDY    32  32  99 SE14      29.82F WCI  22
6HR MIN TEMP:  32; 6HR MAX TEMP:  34;

BOSCOBEL       CLOUDY    35  31  85 CALM      29.89S
6HR MIN TEMP:  35; 6HR MAX TEMP:  36;

PRAIRIE DU CHI CLOUDY    34  31  88 E7        29.85F WCI  28
6HR MIN TEMP:  34; 6HR MAX TEMP:  36;

PLATTEVILLE    CLOUDY    33  33 100 SE9       29.88F WCI  25
6HR MIN TEMP:  32; 6HR MAX TEMP:  33;

$$

WIZ056-057-062-063-064-067-068-060100-
SOUTH CENTRAL WISCONSIN

CITY           SKY/WX    TMP DP  RH WIND       PRES   REMARKS
REEDSBURG      CLOUDY    32  32  99 E3        29.90S
6HR MIN TEMP:  32; 6HR MAX TEMP:  35;

BARABOO/DELLS  CLOUDY    32  31  94 S8        29.90S WCI  25
6HR MIN TEMP:  32; 6HR MAX TEMP:  34;

LONE ROCK      CLOUDY    33  31  92 E7        29.91F WCI  27
6HR MIN TEMP:  33; 6HR MAX TEMP:  36;

MINERAL POINT  CLOUDY    34  34 100 SE10      29.87F FOG     WCI  26
MADISON        CLOUDY    32  30  92 S10       29.93F WCI  24
6HR MIN TEMP:  32; 6HR MAX TEMP:  33;

MIDDLETON      NOT AVBL
WATERTOWN      CLOUDY    31  31 100 SE6       29.95F WCI  26
6HR MIN TEMP:  31; 6HR MAX TEMP:  32;

MONROE         CLOUDY    32  32 100 SE12      29.91F FOG     WCI  23
JANESVILLE     CLOUDY    34  34 100 S9        29.95S FOG     WCI  26
$$

WIZ051-052-058>065-066-070>072-060100-
SOUTHEAST WISCONSIN

CITY           SKY/WX    TMP DP  RH WIND       PRES   REMARKS
MILWAUKEE      CLOUDY    34  31  88 S7        29.97F FOG     WCI  28
6HR MIN TEMP:  33; 6HR MAX TEMP:  34;

WAUKESHA       CLOUDY    30  28  93 S6        29.96F FOG     WCI  24
MILWAUKEE/TIMM CLOUDY    32  28  86 S6        29.99S WCI  26
RACINE         CLOUDY    33  31  92 S5        30.00F FOG     WCI  29
6HR MIN TEMP:  33; 6HR MAX TEMP:  33;

BURLINGTON     CLOUDY    32  31  97 CALM      29.96F FOG
6HR MIN TEMP:  32; 6HR MAX TEMP:  32;

KENOSHA        CLOUDY    32  30  92 S7        29.98F FOG     WCI  26
6HR MIN TEMP:  32; 6HR MAX TEMP:  33;

FOND DU LAC    CLOUDY    33  29  85 S7        29.95S WCI  27
6HR MIN TEMP:  33; 6HR MAX TEMP:  34;

SHEBOYGAN      CLOUDY    32  31  96 S8        29.96S FOG     WCI  25
6HR MIN TEMP:  33; 6HR MAX TEMP:  34;

WEST BEND      CLOUDY    32  32 100 S3        29.96F
JUNEAU         CLOUDY    31  30  96 SE8       29.95F WCI  24
6HR MIN TEMP:  31; 6HR MAX TEMP:  32;

$$

LSZ147-162-060100-
LAKE SUPERIOR

STATION/POSITION TIME  TEMP    WIND        PRES    WAVE
                       AIR SEA DIR/SP/G            HT/PER
                 (UTC) (F)     (DEG/KT/KT) (MB)    (FT/S)
DEVILS ISLAND    0000   38      80/ 14/ 16 1010.1F
PORT WING        2340   36     110/  2/  7 1008.8F
SAXON HARBOR     2340   39     150/  2/  4 1009.5F
$$

LMZ867-665-643>646-060100-
LAKE MICHIGAN

STATION/POSITION TIME  TEMP    WIND        PRES    WAVE
                       AIR SEA DIR/SP/G            HT/PER
                 (UTC) (F)     (DEG/KT/KT) (MB)    (FT/S)
CHAMBERS ISLAND  2330   37     190/  5/ 12C1F1C2F2C3F3C4F4C5F5C6F6C7F7C8M1C9M2Ca!



USA.gov is the U.S. government's official web portal to all federal, state and local government web resources and services.